RH
19 22 27 29 34 39 39 39 36 38 36 26 31 37 37 36 30 26 22 26 32 24 23 26 24 39 70 90 91 93 99 101 100 100 101 101 100 100 101 100 100 100 96 95 93 83 75 77 79 71 58 57 65 64 54 44 47 63 77 89 98 91 76 62 54 53 50 47 51 53 53 55 56 56 57 61 64 64 60 54 46 47 61 78 84 80
25 27 34 35 38 46 56 58 45 41 39 31 34 36 34 36 32 26 23 32 39 30 30 36 29 37 64 76 80 89 96 99 101 100 100 100 100 100 100 100 100 100 98 96 93 85 78 77 76 66 60 65 61 50 42 34 38 56 75 93 93 81 68 54 46 44 39 36 39 45 53 59 63 64 62 62 62 59 57 54 46 42 51 70 85 88
33 33 35 38 48 53 61 66 50 42 45 42 42 37 32 34 33 32 36 44 47 35 31 38 31 32 52 62 66 76 80 86 97 101 100 100 101 100 100 101 100 100 100 100 94 87 83 76 66 57 58 63 50 38 36 30 36 55 75 90 87 77 65 48 40 37 32 33 39 53 64 66 66 65 65 69 71 68 64 57 48 42 44 57 75 82
32 36 38 43 53 46 45 61 57 44 45 47 42 31 30 34 33 34 41 48 50 41 37 42 41 42 55 56 48 50 56 73 93 100 101 100 99 101 101 100 101 101 100 101 94 87 88 77 58 51 54 57 43 32 33 35 47 62 74 82 80 75 62 42 33 29 30 37 50 65 71 69 68 66 66 69 72 70 63 54 50 46 43 54 69 71
27 32 40 49 53 40 32 50 55 37 38 55 48 31 31 34 32 31 39 53 56 46 46 54 49 43 51 50 40 44 56 73 92 97 99 101 100 100 101 100 100 101 99 100 93 87 91 80 57 46 50 51 39 29 31 40 57 68 71 75 76 71 54 35 28 26 28 35 50 64 66 64 62 58 56 57 59 58 53 48 44 37 36 50 63 63
27 25 31 40 46 42 33 44 56 41 38 52 50 40 40 37 35 35 43 60 58 38 38 50 44 38 53 53 41 48 61 73 89 95 94 97 100 99 100 101 100 100 100 99 92 88 91 86 64 49 49 49 40 34 37 45 57 65 67 69 74 69 49 29 24 27 29 31 40 49 49 44 41 39 42 49 57 59 54 44 33 29 33 46 59 63
31 30 33 35 43 47 38 43 57 51 39 38 43 49 53 49 41 39 45 51 46 36 40 54 50 44 51 47 44 52 57 67 84 92 90 88 92 94 96 100 101 100 100 97 92 88 88 84 70 56 51 48 45 42 44 51 58 65 69 65 66 65 43 23 22 27 28 28 32 35 34 31 31 32 35 44 56 59 49 35 26 29 38 50 61 67
31 32 39 39 43 45 38 43 52 48 36 35 47 53 51 45 37 46 58 52 46 40 43 64 64 45 41 43 50 55 48 54 73 85 88 83 81 84 86 93 98 100 101 95 87 84 84 80 72 65 56 49 48 45 43 48 53 63 66 56 60 64 40 18 21 25 25 24 23 25 26 30 37 39 39 40 42 40 33 26 24 30 43 57 64 67
36 28 36 41 40 37 39 48 50 39 29 38 55 54 49 47 49 63 65 57 59 43 35 63 59 36 50 63 59 56 47 47 60 73 82 80 77 77 77 81 88 95 99 93 83 77 76 76 73 71 62 52 48 42 39 41 47 57 59 51 60 69 45 21 19 22 23 23 21 24 28 33 42 46 46 42 31 24 23 21 21 25 36 47 52 56
32 22 30 39 35 36 45 49 45 32 26 39 52 49 48 57 67 74 62 55 63 49 41 63 52 31 56 70 55 50 48 46 52 57 61 64 68 72 71 71 74 83 93 92 84 76 73 75 78 76 68 57 49 45 43 46 52 57 58 57 66 76 59 29 17 20 21 22 22 26 33 38 43 45 45 40 26 19 20 18 19 21 24 28 29 35
32 26 30 32 27 35 44 39 36 35 31 38 45 39 36 51 66 72 74 65 56 52 55 67 59 37 45 60 56 51 44 43 50 49 48 52 58 66 69 66 66 74 84 89 87 82 80 81 82 78 67 59 56 54 53 55 57 56 59 67 75 83 69 31 16 23 22 23 27 32 39 42 45 46 40 32 22 18 18 17 17 18 19 20 20 23
36 27 29 29 22 26 29 26 27 34 40 40 42 38 33 47 57 58 68 62 50 58 65 72 66 41 39 53 56 58 56 54 57 52 50 53 54 62 68 64 63 70 79 86 86 84 86 87 87 84 77 76 78 72 65 62 59 57 63 77 84 88 74 38 21 27 26 28 34 37 42 45 47 50 41 27 20 17 17 16 17 17 17 19 20 22
37 32 34 29 23 20 23 28 22 27 40 36 38 44 41 48 52 51 62 60 56 62 59 66 61 40 52 61 51 60 69 66 69 65 58 56 55 61 68 66 63 67 75 80 83 85 89 93 93 93 93 96 91 75 65 63 64 70 79 88 91 90 85 62 37 31 31 36 40 38 40 47 52 56 49 32 19 16 16 15 16 16 17 18 20 21
37 45 39 25 23 21 24 30 22 26 34 25 30 40 42 53 53 52 66 64 58 58 54 60 53 43 60 61 50 64 70 69 82 85 76 69 68 70 74 74 69 71 78 83 89 94 96 99 99 99 101 97 83 66 63 67 71 80 86 90 93 91 88 69 39 32 39 43 46 45 45 53 58 59 54 35 18 16 16 15 16 17 17 18 19 20
42 47 41 28 26 23 22 28 32 38 34 27 34 32 33 54 54 49 58 60 57 58 55 49 41 48 58 49 50 64 67 76 90 93 89 83 81 80 80 82 82 84 89 92 98 100 98 101 100 98 94 85 75 69 71 72 69 71 80 91 98 91 77 51 27 32 45 45 50 56 57 61 61 61 58 38 19 16 16 15 17 17 18 18 18 20
39 41 46 36 26 22 19 22 28 31 29 33 36 28 28 43 53 52 54 65 68 58 53 47 43 63 66 48 55 70 76 86 91 89 91 89 87 86 87 91 92 93 94 94 97 98 99 101 93 87 83 74 68 70 74 72 62 62 72 78 77 69 55 42 40 46 50 50 55 58 61 64 62 63 59 38 19 16 17 16 17 17 19 19 19 20
37 41 46 34 22 20 19 20 21 19 26 34 28 30 38 37 50 59 51 64 69 50 53 56 52 67 66 49 57 74 85 89 90 92 93 91 90 87 90 91 88 88 89 90 92 90 93 87 74 76 82 74 66 69 76 72 60 62 66 58 50 46 39 42 53 48 40 49 59 58 60 64 65 64 56 36 20 16 17 17 18 18 20 20 20 21
50 45 40 29 18 17 19 19 20 19 25 30 25 32 38 31 44 58 56 65 60 48 60 59 54 66 69 63 59 64 81 89 90 95 93 92 92 88 87 83 78 77 76 79 81 76 76 71 63 67 73 67 62 68 79 78 68 67 67 58 54 54 47 48 53 44 35 48 61 64 63 64 67 65 51 34 21 17 17 17 18 19 20 21 22 23
49 41 39 35 23 23 27 23 22 23 23 26 27 27 29 34 41 41 51 64 51 51 64 56 56 66 68 76 65 52 75 89 89 96 96 96 97 93 88 78 70 69 65 67 72 69 67 67 68 70 67 64 63 71 85 91 87 84 81 71 61 62 63 59 58 54 52 56 62 65 64 66 69 60 45 33 22 17 18 19 19 21 22 22 23 24
51 41 39 35 25 26 33 34 38 37 24 20 28 32 38 53 53 41 49 59 46 53 66 55 55 62 66 81 73 60 76 87 89 100 100 98 99 94 86 74 67 67 62 60 67 72 69 66 71 72 68 67 68 77 91 98 99 98 95 83 66 65 69 63 59 61 61 60 58 56 56 65 67 50 42 45 36 23 19 20 20 21 23 24 25 28
49 35 39 43 35 31 31 33 42 40 26 26 37 42 44 46 42 38 43 51 50 60 71 60 55 65 74 82 73 63 71 78 89 101 98 96 96 89 80 72 68 68 62 59 64 69 67 67 71 71 68 70 73 81 92 97 100 100 100 92 80 78 79 71 66 66 66 66 60 52 54 64 61 44 45 61 57 39 25 21 22 25 29 32 31 36
47 37 51 55 41 33 28 27 34 32 29 41 44 39 45 46 43 42 42 52 61 62 67 65 60 67 76 80 77 71 73 79 90 97 95 94 91 86 80 74 70 67 64 65 65 61 61 66 70 71 74 78 80 84 88 93 97 96 95 95 90 88 86 82 80 77 77 77 68 60 62 67 60 45 48 64 66 52 34 26 29 35 40 42 40 44
61 57 54 47 36 33 31 30 34 31 33 44 45 48 57 51 53 62 57 57 59 55 60 62 60 68 77 84 87 82 81 86 89 90 90 89 88 85 79 74 71 69 68 68 64 60 62 68 72 75 78 79 80 82 84 87 93 94 93 91 87 85 84 84 86 84 85 84 74 67 69 69 62 53 54 63 68 60 46 40 41 44 50 53 53 56
61 59 45 42 49 51 43 36 36 40 44 42 43 58 56 40 52 72 71 71 69 62 59 48 48 68 79 86 88 81 82 87 86 87 87 85 87 84 80 79 76 73 70 66 63 64 68 72 77 77 76 76 76 77 80 82 87 92 93 90 86 83 83 83 84 87 89 87 79 73 73 72 66 60 59 62 64 62 57 55 52 50 55 60 63 66
37 42 45 48 53 54 47 39 40 44 46 40 44 58 56 52 62 61 60 71 67 62 61 47 52 73 75 80 88 84 84 86 83 86 87 86 87 85 84 84 79 75 70 67 66 67 70 77 81 78 75 77 77 78 82 83 85 89 89 88 87 85 85 86 88 91 91 89 85 81 79 72 62 59 62 61 61 62 63 64 62 59 60 65 68 65
45 56 68 62 51 50 50 52 57 52 45 45 51 55 56 58 52 40 48 60 51 51 60 58 64 70 66 79 90 84 85 84 79 83 86 86 85 83 83 79 75 72 68 65 59 50 53 64 72 77 78 79 81 82 83 82 83 85 85 84 86 87 90 94 97 98 96 92 90 87 82 67 55 59 66 63 61 64 66 67 65 65 67 68 68 60
68 69 72 69 54 50 53 55 59 55 49 49 47 46 56 64 59 50 50 51 51 56 61 66 71 61 59 79 86 82 86 84 79 81 82 83 83 81 79 74 72 69 67 64 49 33 36 44 50 59 62 64 71 75 79 82 82 82 81 81 84 87 92 98 101 100 99 96 92 88 80 67 60 66 71 66 63 66 68 67 66 69 71 70 70 65
76 59 57 70 62 54 54 46 43 48 49 48 43 40 49 63 68 56 37 38 54 58 57 71 77 63 60 72 74 78 85 83 82 80 77 80 83 81 79 76 73 70 71 71 57 41 41 41 42 46 42 39 43 46 52 63 73 80 81 78 80 84 90 96 99 99 98 95 90 85 79 71 71 74 72 70 69 70 72 74 74 76 75 72 73 73
75 57 53 68 64 58 58 49 45 52 55 57 56 50 49 56 57 46 41 51 54 51 61 75 72 63 63 66 68 71 73 74 75 73 70 74 79 80 79 76 75 74 76 78 69 59 53 46 42 41 33 27 27 26 25 32 51 70 79 78 78 79 84 88 90 91 90 88 87 86 84 83 83 82 77 75 76 76 78 79 78 78 78 76 76 75
65 56 58 70 63 57 62 59 48 49 57 62 65 67 69 68 62 57 68 74 58 54 74 79 70 66 62 64 73 71 65 65 64 62 64 66 69 74 73 72 76 79 81 82 78 71 65 53 40 33 28 23 23 24 22 25 33 42 56 74 80 78 81 83 82 83 84 85 87 87 86 86 87 86 82 79 79 79 78 75 71 71 71 70 71 71
54 53 65 79 69 54 62 68 56 54 62 61 64 75 74 64 64 69 80 81 65 58 70 73 71 69 61 63 73 69 65 67 65 65 67 62 60 65 65 67 73 78 81 83 81 81 79 69 57 52 46 33 26 28 29 31 33 30 44 71 80 76 77 76 74 77 77 76 77 76 76 78 79 80 78 75 72 68 67 68 69 69 68 67 68 70
63 59 64 79 73 55 58 66 62 62 63 55 58 73 72 62 63 71 78 78 68 59 61 64 66 66 64 66 68 66 66 68 69 74 76 69 62 58 57 59 63 68 72 73 75 78 79 75 73 74 65 48 42 48 47 44 47 50 60 74 75 69 67 62 61 66 68 64 60 60 64 65 63 61 60 59 58 55 55 59 63 66 67 66 65 65
71 58 53 66 63 51 61 73 70 65 62 59 62 70 75 77 74 73 78 80 76 70 68 68 66 66 70 70 67 66 66 65 67 71 78 82 74 63 61 61 60 61 62 61 64 69 70 70 72 76 74 64 59 61 56 52 53 57 62 64 63 60 57 52 52 57 62 60 52 50 52 54 52 48 46 48 50 51 52 53 55 58 58 57 57 56
76 67 63 74 63 50 66 75 65 62 65 70 76 75 75 78 76 74 76 77 78 77 73 74 74 70 71 69 64 64 61 58 57 59 69 83 83 77 73 67 63 63 61 59 60 62 63 65 66 69 71 67 61 56 53 51 50 50 50 51 52 51 49 47 47 49 54 54 50 47 46 46 47 45 43 45 48 50 50 49 50 51 51 51 52 51
76 73 73 86 82 70 73 68 59 66 72 72 79 82 76 71 71 71 70 71 77 78 74 74 73 69 67 63 56 54 51 48 46 46 51 62 72 79 78 70 66 63 59 59 59 58 60 61 60 62 61 56 53 49 47 48 46 44 43 42 42 42 41 42 41 41 45 46 46 46 44 43 45 44 44 45 46 46 46 45 46 46 46 46 46 45
70 74 71 75 74 69 69 69 68 71 69 66 74 79 73 69 71 71 66 63 69 76 75 70 68 66 63 57 51 49 45 41 40 40 40 43 51 61 68 71 72 67 61 61 60 57 57 57 57 57 54 51 49 46 45 46 44 43 43 42 42 41 40 41 40 39 42 43 42 43 43 43 44 43 44 44 44 44 44 43 43 43 42 42 41 41
60 67 69 64 64 72 79 82 81 78 76 74 74 73 71 70 74 78 73 62 61 70 71 65 66 65 56 51 52 49 43 42 44 43 39 38 39 42 46 53 60 65 67 67 66 63 61 60 60 57 52 49 49 46 46 46 44 43 43 43 42 41 41 43 44 44 45 46 46 46 45 45 44 44 43 43 44 47 48 48 47 46 46 47 48 50
60 58 60 56 62 81 93 96 95 96 93 84 75 73 70 67 71 78 77 66 59 61 61 62 68 65 54 50 50 47 49 53 55 50 42 38 37 37 36 37 40 48 54 56 57 59 61 63 63 60 58 56 55 53 51 50 50 49 48 46 43 42 43 45 45 45 46 46 47 48 47 47 46 46 46 46 48 49 50 50 50 49 50 51 53 56
63 69 74 67 66 75 81 87 93 95 91 83 80 76 67 66 72 73 74 72 61 53 53 59 64 61 54 51 47 52 66 69 60 51 44 39 39 37 36 37 36 37 39 40 40 41 46 52 53 53 55 56 56 57 56 55 56 54 51 50 48 47 48 47 46 46 46 46 46 45 46 46 46 46 47 47 48 48 49 49 49 49 50 51 51 51
71 84 85 78 80 81 77 81 87 89 88 83 80 73 63 64 66 66 77 80 62 48 50 54 56 57 54 48 44 55 72 70 56 47 42 40 40 39 38 39 37 38 38 38 38 37 38 40 39 40 42 43 45 48 50 53 56 56 56 56 54 53 52 51 51 50 48 48 46 45 45 45 44 44 44 44 45 45 45 44 43 44 45 46 49 52
83 91 87 83 91 93 91 92 94 94 87 75 69 65 58 58 62 72 88 81 55 46 49 47 49 53 52 48 48 56 63 58 47 43 42 40 40 41 42 41 40 43 43 41 42 43 41 40 40 39 38 40 42 43 43 45 46 48 51 52 52 53 52 51 52 50 49 50 48 46 44 42 41 41 40 40 40 39 38 37 36 38 42 45 50 54
80 88 89 85 87 92 95 96 97 95 80 65 62 58 53 64 78 79 75 62 46 46 49 44 43 44 42 42 46 49 51 47 42 42 42 41 39 38 39 40 40 41 42 42 44 45 45 47 47 44 39 38 39 38 38 39 38 37 39 40 42 44 45 44 44 44 45 46 45 43 41 39 41 41 40 41 40 39 39 38 35 38 43 49 54 56
67 82 87 79 78 89 94 93 97 94 71 58 65 65 62 78 87 71 56 52 49 48 48 48 46 43 41 41 40 40 42 41 41 41 40 39 39 38 39 40 39 37 36 37 39 41 43 45 44 41 37 35 35 34 34 35 36 36 36 35 35 36 37 38 39 41 44 43 42 42 42 41 43 45 47 49 49 48 46 41 38 40 44 49 53 50
64 78 85 80 80 90 98 94 87 77 60 55 67 71 67 70 69 59 53 53 51 48 49 50 48 45 46 45 41 40 40 38 39 39 38 38 38 39 41 43 41 39 38 37 37 37 37 38 38 36 35 34 34 34 34 34 34 35 36 36 35 35 34 35 37 39 42 42 41 40 39 40 42 45 49 51 49 47 44 41 41 42 42 43 43 39
61 64 70 76 76 79 87 86 72 60 56 57 60 60 59 59 59 59 58 56 55 55 51 47 45 45 46 46 44 45 44 43 44 42 40 40 40 40 43 46 46 46 44 42 43 41 38 38 38 37 36 36 36 36 35 35 35 34 34 36 36 36 34 33 34 36 38 39 39 38 36 36 37 39 43 44 44 44 43 43 44 42 40 40 39 38
51 51 57 65 64 63 67 66 59 56 55 54 52 52 52 52 50 51 49 48 49 48 44 44 46 46 47 49 48 49 50 50 50 49 49 49 48 48 49 49 50 51 49 48 48 46 44 43 42 41 41 39 38 38 37 37 37 36 35 35 36 38 37 34 32 32 33 34 35 35 36 36 37 39 41 44 45 44 43 44 43 42 42 43 43 44
47 50 61 65 67 74 71 57 51 53 51 50 51 48 46 46 45 44 44 43 44 46 47 49 51 51 53 54 54 55 56 56 56 56 56 56 56 55 55 54 54 54 54 55 55 53 53 52 51 52 52 49 47 47 43 40 39 38 38 37 37 40 43 41 37 35 35 36 37 37 37 37 40 43 46 47 48 47 47 48 48 48 49 50 50 52
47 47 63 72 77 82 73 54 48 52 51 51 51 48 47 50 49 48 50 49 50 53 53 54 55 56 57 59 61 62 61 61 62 63 62 62 62 61 60 59 59 58 59 61 63 63 64 63 61 62 61 60 60 60 57 52 48 44 43 41 39 41 44 47 47 48 47 48 48 48 47 47 48 49 50 50 50 49 49 49 50 51 52 53 54 55
53 51 59 67 71 70 63 51 47 51 52 52 52 52 52 51 50 51 52 51 52 54 53 52 52 53 53 56 60 61 61 63 66 67 67 67 67 67 67 66 66 67 67 68 69 70 71 71 70 69 67 66 67 67 67 65 62 60 57 51 46 44 43 43 45 49 51 52 52 52 51 51 50 50 50 49 48 45 43 41 42 44 47 51 54 55
58 63 69 74 74 71 65 53 47 51 56 53 50 52 53 52 53 55 54 55 57 57 57 56 55 56 59 61 62 64 67 69 71 71 72 73 73 73 75 74 74 74 75 75 76 76 76 77 77 77 75 73 72 72 71 69 69 70 69 65 58 53 48 44 41 41 43 47 48 47 46 46 45 45 43 42 41 39 38 39 40 43 48 55 60 61
49 55 69 78 73 63 54 45 41 46 50 47 46 51 55 56 59 60 61 64 67 66 67 67 66 67 71 72 72 74 75 75 77 78 79 81 82 82 83 83 83 82 81 80 80 79 78 78 78 79 78 77 77 76 74 73 72 72 73 73 69 61 54 50 45 41 39 41 42 43 44 43 41 40 40 41 43 44 46 48 51 54 59 63 67 69
Wind_Speed
3 2 1 4 6 6 7 6 5 4 4 3 3 3 3 3 4 6 5 5 1 4 1 3 3 3 5 5 5 11 14 13 12 13 14 17 20 23 24 23 23 25 25 24 25 23 19 18 20 23 24 22 20 17 17 21 24 22 20 19 17 17 16 12 10 10 8 7 7 7 7 6 5 5 4 3 2 2 1 0 0 1 1 1 1 2
4 3 4 8 8 7 7 5 4 4 3 3 3 2 3 3 4 6 4 6 3 3 3 1 4 2 2 4 3 10 11 9 12 13 14 18 22 23 23 23 24 25 25 24 24 22 21 22 24 26 25 22 22 22 26 29 28 23 21 17 15 16 15 11 10 9 6 6 6 5 5 5 6 5 4 3 2 2 1 1 2 2 1 1 2 2
3 2 10 9 6 5 3 4 5 4 3 3 2 2 2 3 3 6 5 6 4 3 2 2 6 2 4 3 2 3 3 4 11 14 13 18 21 21 23 24 25 25 25 26 25 23 23 26 28 28 25 24 27 30 33 33 27 23 20 16 16 17 14 12 11 9 7 7 6 6 6 6 5 5 4 3 2 1 1 2 3 4 3 0 3 3
0 5 8 5 7 6 2 2 6 5 2 2 3 3 2 4 0 2 4 6 6 3 2 4 5 3 5 2 2 2 1 3 9 12 14 19 19 18 20 23 24 25 26 27 27 25 26 30 30 28 27 29 31 32 33 32 28 23 19 17 17 16 13 13 12 10 9 8 7 7 7 6 5 4 4 3 3 2 2 3 5 5 3 1 1 2
5 7 3 7 7 7 3 2 6 5 1 2 3 4 3 4 3 3 3 5 5 4 4 6 5 4 5 2 2 2 2 5 9 12 15 18 17 14 17 21 23 25 27 28 29 28 30 33 32 29 29 32 33 33 31 30 27 22 19 17 17 15 13 13 13 11 10 9 9 8 7 7 6 5 4 4 3 2 3 4 4 4 1 0 0 1
7 6 6 6 4 5 5 4 5 7 2 3 4 8 7 5 4 3 4 5 4 5 4 5 4 3 6 3 3 3 2 3 6 10 13 16 15 15 18 20 22 24 26 28 29 30 32 34 34 31 30 34 35 33 31 28 25 21 20 18 16 15 14 14 13 11 11 10 9 8 7 6 5 4 4 4 3 3 4 4 4 2 0 1 1 2
4 2 4 5 5 6 5 3 5 6 6 1 4 7 7 5 5 2 2 4 2 1 2 3 5 1 6 4 3 5 2 0 2 5 10 15 16 15 17 20 23 25 27 29 30 31 33 35 36 34 32 33 35 34 31 28 25 22 20 18 16 16 16 15 13 12 12 11 9 7 6 5 3 2 3 4 4 4 4 3 2 1 1 1 2 2
3 2 4 3 4 5 4 3 6 8 8 2 5 7 7 5 5 4 4 4 1 2 2 5 5 4 2 4 5 4 1 1 3 5 7 11 16 16 17 20 24 28 30 31 32 34 35 36 36 35 32 31 33 34 32 29 25 21 20 18 17 17 17 16 14 13 13 11 9 7 6 5 3 1 2 4 5 4 3 2 1 1 0 1 1 2
2 2 2 4 5 3 4 5 8 10 5 5 5 7 6 5 5 4 6 4 1 1 2 6 4 3 2 5 5 4 3 2 5 6 6 10 15 18 19 20 23 28 31 33 34 35 36 36 35 34 32 31 32 33 32 28 25 22 21 20 20 19 17 17 16 15 14 13 10 7 7 6 4 3 3 5 5 4 3 2 1 0 1 1 2 2
2 4 5 6 5 4 5 3 8 10 3 4 6 6 5 5 5 5 5 3 3 3 3 6 3 2 3 5 4 4 3 3 6 5 6 11 16 19 21 22 23 26 31 34 35 35 36 36 35 34 33 31 31 33 31 27 25 24 22 21 22 20 18 17 17 16 15 14 11 9 8 6 5 5 5 6 6 5 4 2 1 1 2 2 3 3
3 1 3 4 4 6 4 2 3 5 3 5 6 6 7 6 5 4 4 4 5 2 5 5 0 3 1 4 1 0 1 4 6 6 5 7 14 20 23 23 24 27 32 34 35 35 34 34 34 34 34 32 31 31 28 24 23 24 23 21 22 21 18 18 18 18 17 15 13 11 9 6 6 6 6 7 7 6 4 3 2 2 3 4 4 5
6 2 2 2 2 4 6 5 2 2 4 5 4 5 4 4 4 4 4 4 4 3 6 4 1 4 2 3 4 4 6 5 5 7 6 5 10 18 23 25 25 27 31 33 34 34 33 32 32 33 31 30 28 26 24 23 24 24 23 23 23 22 19 18 19 19 18 17 15 12 9 7 7 7 7 8 7 5 3 2 3 3 4 5 6 7
4 3 4 4 2 4 5 4 2 4 5 5 5 5 4 2 3 2 3 1 2 5 3 3 2 2 3 5 4 5 7 5 6 8 10 10 12 17 22 25 25 27 30 31 30 29 25 24 25 25 26 26 24 23 24 26 26 25 24 23 23 23 21 20 20 20 20 19 16 13 10 9 9 9 8 8 7 5 2 2 3 4 6 7 8 8
3 5 5 3 2 2 5 5 2 1 1 4 4 4 4 3 2 1 3 1 2 4 2 4 3 1 3 3 2 5 7 7 8 6 5 7 8 11 16 19 21 23 23 22 18 14 13 16 17 18 20 23 22 22 25 25 24 23 22 21 22 23 23 22 22 22 22 20 17 14 12 11 10 10 9 8 7 5 3 3 4 6 7 9 9 9
2 3 3 2 1 1 2 5 6 5 3 3 3 5 5 4 4 3 3 2 3 2 2 3 1 2 2 2 4 6 6 6 5 3 8 7 7 11 11 11 11 11 11 12 12 11 11 12 11 11 13 17 20 22 24 21 19 17 18 20 19 19 21 23 24 25 23 21 18 15 14 12 11 11 10 9 8 6 4 5 6 7 9 10 10 10
4 4 6 3 2 1 1 2 5 6 3 1 2 5 3 5 5 3 3 4 4 2 0 1 2 2 3 2 4 5 5 6 4 7 15 16 15 16 14 12 9 6 5 7 11 14 15 11 4 3 7 12 18 24 24 19 15 14 16 19 16 15 21 26 27 26 22 20 18 16 15 13 12 12 11 10 9 8 6 7 8 8 9 9 10 10
3 3 5 4 2 1 2 2 3 4 3 1 2 3 4 4 7 6 2 1 3 3 2 1 1 4 2 1 4 5 5 5 5 6 11 15 18 20 19 18 16 13 10 5 6 11 14 12 7 7 7 10 17 24 25 20 17 17 19 20 18 18 25 29 28 25 22 22 20 18 15 13 12 12 11 10 11 10 8 9 9 9 9 9 9 9
4 2 5 2 2 2 3 3 3 2 4 5 3 5 3 3 5 5 3 3 4 2 3 2 1 3 1 0 3 3 3 3 5 4 6 10 15 19 20 19 16 14 14 10 3 3 6 9 11 11 9 10 16 22 25 25 23 21 20 21 21 21 25 28 28 27 25 24 21 18 14 12 12 12 11 11 11 11 10 11 11 11 10 9 9 8
4 1 6 2 2 2 5 6 4 5 4 5 5 3 3 3 2 2 3 2 2 2 3 3 1 2 3 3 3 3 4 2 3 4 4 6 9 12 15 15 10 7 9 5 1 3 5 6 6 6 7 9 14 19 25 28 27 25 22 21 20 22 25 26 25 25 26 24 21 18 15 14 13 12 11 11 12 12 12 12 12 12 10 9 8 7
3 3 4 3 1 2 5 3 2 3 4 5 3 3 3 3 4 2 2 3 3 3 2 2 2 2 5 4 4 6 6 5 2 1 3 4 7 11 13 12 10 9 8 8 8 8 7 5 3 2 3 6 12 19 25 24 20 18 17 16 17 20 25 26 22 20 22 22 22 20 19 17 15 13 13 13 12 13 13 12 12 12 11 10 8 7
3 3 3 3 3 2 2 0 3 4 2 3 3 2 2 2 3 2 2 2 3 4 3 1 1 4 5 4 5 6 6 6 6 3 3 6 11 15 15 14 15 14 11 11 10 8 6 3 1 1 2 4 8 14 19 18 14 12 11 11 13 13 19 25 24 21 20 20 21 22 21 19 16 15 16 14 11 12 13 13 13 12 11 10 9 7
2 3 3 1 3 2 0 2 3 4 5 5 3 2 3 3 3 4 1 1 2 4 4 4 2 6 5 3 4 5 5 6 7 6 6 9 14 17 17 18 17 15 13 11 8 6 4 3 3 3 3 4 5 7 10 11 11 10 9 10 10 10 13 18 21 21 19 19 20 22 21 19 17 17 17 15 13 12 12 12 13 13 11 10 10 8
3 4 4 1 1 1 4 5 2 1 4 6 4 3 4 3 4 5 3 3 1 2 2 4 1 5 5 3 4 5 4 7 11 12 11 12 14 16 18 18 16 15 13 11 8 7 6 6 6 6 6 7 6 6 7 8 9 10 10 10 10 11 12 13 15 17 17 18 20 21 20 19 18 18 18 16 15 13 11 11 13 13 12 11 10 8
2 4 4 1 3 4 5 6 4 4 6 6 4 2 3 2 2 4 5 3 3 3 2 2 1 5 5 3 2 2 4 8 12 14 14 15 14 14 17 18 18 17 14 11 9 8 8 8 8 9 8 6 6 5 5 6 8 9 10 9 9 9 10 11 13 14 15 18 20 20 19 18 18 17 17 17 17 15 13 12 13 14 14 12 11 9
2 2 4 4 2 4 4 5 5 4 4 4 2 3 2 4 5 3 2 3 2 3 4 4 3 6 5 4 4 4 6 6 6 9 11 12 13 15 16 17 18 16 12 10 9 8 9 8 8 8 8 7 6 6 5 5 6 6 7 6 6 6 7 9 10 12 14 17 18 18 18 18 18 17 16 18 19 17 15 14 13 14 15 14 13 13
4 2 3 5 4 3 2 2 3 1 1 2 2 4 3 5 4 2 2 4 1 3 4 4 4 5 4 4 6 5 5 5 4 6 7 8 12 16 17 17 16 13 11 10 9 8 8 8 8 8 8 7 5 4 4 4 3 3 3 4 4 5 7 9 10 11 11 12 13 14 16 18 19 17 17 19 19 18 17 16 15 15 16 15 15 16
5 3 2 6 5 5 5 4 4 2 4 2 1 4 4 2 3 4 4 2 3 3 1 4 5 3 3 4 6 4 2 2 3 6 7 8 11 15 15 16 14 11 11 10 10 9 9 10 10 9 9 8 5 3 2 1 2 2 3 4 7 8 8 10 11 11 11 11 11 11 14 18 18 17 18 20 20 20 21 19 17 17 17 16 16 17
5 3 1 5 4 1 3 2 1 3 5 5 3 0 2 2 3 5 3 3 5 5 3 6 4 4 4 5 6 5 4 3 2 1 3 4 7 11 13 14 14 12 12 12 11 11 11 11 11 11 11 10 7 5 2 2 2 2 3 4 6 9 10 10 10 10 10 10 9 9 11 14 15 16 19 21 21 21 21 20 17 15 15 16 16 16
6 2 0 4 4 3 3 4 3 4 4 3 3 1 1 2 3 4 3 4 5 5 5 5 6 4 4 5 5 6 6 4 3 4 2 1 3 7 9 12 14 15 15 13 12 11 11 12 12 12 11 9 6 5 3 1 1 1 2 2 4 7 9 9 9 8 8 9 9 8 9 10 12 15 18 19 19 19 18 16 15 15 15 16 16 16
4 2 1 3 4 4 5 5 3 5 5 3 3 3 1 3 4 4 3 1 2 1 3 5 8 3 3 4 5 7 4 1 6 8 6 4 2 4 7 9 12 14 16 15 14 13 12 12 12 12 11 10 8 8 6 3 1 1 1 1 2 5 6 7 7 7 8 8 9 9 10 11 13 15 16 17 17 17 15 14 15 17 18 19 18 18
3 2 0 3 5 4 5 5 4 5 6 4 2 4 1 4 4 4 3 1 1 1 1 4 7 4 3 3 5 6 7 10 12 12 10 8 4 3 6 7 9 11 12 13 14 14 14 14 13 12 12 11 10 10 8 7 4 3 3 3 3 4 5 6 6 7 8 9 9 9 9 11 12 13 15 16 15 13 11 9 10 10 12 14 14 13
4 3 0 4 5 1 3 5 4 5 7 4 2 4 4 3 3 2 3 2 0 2 2 4 4 1 3 5 8 12 15 16 15 15 14 11 6 5 6 7 7 8 8 9 12 13 14 15 14 13 12 11 10 9 9 8 6 4 4 5 5 4 5 5 6 7 9 10 10 10 10 11 12 12 12 12 11 9 7 6 5 4 4 5 6 5
2 4 3 3 3 3 2 3 3 4 6 2 3 1 2 2 4 4 4 3 2 1 4 4 3 3 3 3 7 10 13 15 16 17 17 14 11 9 9 9 9 8 7 7 8 9 11 12 13 14 13 12 11 11 9 8 7 7 6 6 4 4 4 4 4 5 7 7 7 8 9 9 10 10 9 8 7 6 4 3 3 2 2 2 2 3
3 4 3 2 3 3 3 3 4 3 2 4 5 3 3 3 5 6 4 3 3 2 2 3 2 1 2 5 8 9 11 14 18 20 20 19 17 15 14 14 14 12 10 9 9 9 9 9 10 12 13 12 12 12 11 10 9 8 7 6 5 4 4 3 3 3 4 4 4 4 5 6 6 6 5 5 5 4 3 3 2 2 1 2 3 4
3 4 2 2 4 3 1 4 4 3 5 4 5 3 2 5 7 9 7 3 4 4 4 5 5 4 7 9 12 15 16 20 25 27 26 24 21 20 19 17 16 14 13 12 11 11 11 11 11 10 11 11 10 12 13 13 12 10 9 7 5 4 4 4 4 4 5 5 5 4 4 5 5 5 6 6 6 5 5 5 5 4 4 5 5 6
4 3 2 2 3 3 2 3 4 4 5 4 5 5 2 3 4 7 6 5 5 4 3 4 3 2 5 8 10 13 16 22 27 28 26 25 23 22 21 18 14 12 12 11 11 11 10 10 10 10 11 11 9 9 11 11 10 10 8 7 7 7 6 4 4 5 5 5 6 6 6 7 7 8 8 8 8 7 7 7 7 6 5 5 5 5
5 4 2 2 2 3 4 2 1 3 4 3 3 2 1 1 1 3 4 2 3 2 2 4 3 2 3 5 7 8 12 18 21 20 21 23 22 22 21 19 15 12 9 8 8 7 5 5 5 6 7 7 6 6 6 6 6 7 7 7 8 7 6 5 5 6 5 4 5 6 6 7 7 7 7 8 8 7 7 7 6 5 4 3 3 4
4 2 3 4 2 3 5 3 1 3 2 4 3 2 2 3 2 4 5 1 4 3 2 4 4 4 3 2 2 3 5 10 8 9 15 18 18 18 19 18 17 15 13 11 9 6 3 2 3 2 2 3 3 3 5 7 7 8 9 9 8 8 7 7 7 7 6 4 3 3 4 5 5 5 6 6 7 7 7 7 6 5 4 4 4 4
6 3 3 4 2 2 5 4 2 3 4 4 4 6 9 7 2 5 4 1 3 2 3 5 6 7 7 7 5 2 4 5 2 4 11 14 13 14 14 14 15 15 14 14 13 11 10 7 5 3 2 2 2 5 8 10 9 9 10 10 9 8 9 10 10 8 6 4 3 4 5 5 6 6 6 6 7 7 7 7 7 6 6 6 6 7
7 4 4 4 2 2 3 3 2 3 2 2 3 7 11 5 3 6 2 4 3 3 5 7 10 10 10 12 12 8 5 4 3 3 8 10 9 11 10 10 10 10 10 10 10 10 10 9 7 5 3 1 1 4 8 11 11 10 10 10 10 13 14 13 13 13 12 12 11 12 12 13 14 14 13 13 12 11 10 9 9 8 8 8 8 8
4 3 2 3 2 2 3 3 0 2 2 2 5 9 10 3 4 3 4 6 0 6 8 11 13 12 11 12 12 9 6 5 5 5 7 7 7 8 9 9 9 10 10 9 8 8 7 6 6 6 4 4 4 5 6 8 9 10 11 13 15 17 16 14 13 14 15 16 16 17 17 17 18 18 17 17 16 14 13 12 11 11 11 10 10 10
2 2 2 2 2 2 3 3 1 1 2 5 6 8 8 3 3 2 3 2 5 8 9 11 12 11 11 12 12 10 7 5 4 5 6 7 8 9 9 10 11 11 10 10 11 11 11 11 11 9 7 6 6 7 8 9 9 9 10 11 12 14 14 13 12 13 15 15 15 15 16 16 17 17 17 17 16 15 13 12 12 13 13 12 12 13
1 1 2 1 1 2 2 3 2 2 4 9 5 4 6 2 5 4 5 6 7 9 9 8 8 8 9 8 8 6 4 3 4 5 6 7 8 10 10 11 11 11 11 12 12 13 14 15 15 14 11 10 10 10 11 12 13 13 13 13 11 11 12 13 13 14 15 16 16 16 16 17 16 16 16 16 15 15 14 14 13 13 13 14 15 15
1 1 1 1 1 1 2 1 1 3 4 8 4 3 4 6 9 8 8 6 6 6 7 6 5 6 6 5 5 5 5 6 7 8 10 10 11 11 12 12 12 12 13 14 14 14 15 16 17 17 16 15 14 14 14 15 15 16 16 16 15 14 14 14 15 15 17 18 18 17 18 17 17 17 17 17 16 16 15 14 13 13 14 15 16 15
2 2 3 2 1 2 2 3 4 3 4 11 13 11 11 11 9 6 5 4 2 2 2 3 3 3 3 4 5 6 7 8 9 10 12 13 14 14 14 15 15 15 16 17 17 17 18 18 19 20 20 19 18 18 17 17 18 18 17 16 17 18 18 17 17 18 18 19 20 20 20 20 20 20 19 19 18 18 17 16 16 16 16 16 16 16
1 2 4 3 2 3 5 5 7 6 6 10 13 13 12 10 7 5 4 3 2 2 1 1 2 3 4 5 7 8 9 10 11 12 14 15 16 17 17 17 18 18 19 20 20 20 21 21 22 22 22 22 21 20 20 19 20 20 19 17 17 17 18 19 21 21 21 20 20 21 21 22 22 22 21 21 20 19 19 19 19 18 17 17 17 18
3 3 3 3 3 3 2 3 5 5 6 9 11 10 9 8 7 6 4 3 3 2 2 2 3 4 6 7 9 10 11 12 13 15 16 17 18 18 19 20 20 20 20 20 21 21 22 22 23 23 23 24 23 22 21 21 21 21 21 20 18 17 17 18 19 21 22 21 20 20 21 23 24 23 23 21 21 20 20 19 19 19 19 19 19 19
3 4 3 3 2 1 3 4 4 5 6 6 8 7 6 5 4 3 2 1 1 2 4 5 7 8 9 9 10 12 13 14 15 16 17 17 18 19 20 21 21 21 21 20 21 21 22 22 23 23 24 24 22 21 21 21 20 20 21 21 20 18 18 18 17 17 18 18 18 18 19 21 22 21 21 20 19 19 19 19 19 20 20 20 20 20
1 3 1 2 3 2 1 2 4 4 2 3 5 4 2 1 2 2 3 4 5 6 8 10 11 12 13 14 14 15 16 16 16 17 18 18 18 20 21 21 22 22 23 23 24 24 24 25 25 25 26 25 23 22 22 21 20 20 20 20 20 20 21 21 20 19 17 16 15 16 16 17 18 18 18 18 18 18 18 19 19 20 20 20 20 20
2 1 1 3 4 0 2 3 6 3 2 4 4 1 1 2 3 4 5 6 7 8 10 12 12 13 13 14 15 15 16 17 17 17 17 18 19 21 22 23 24 25 26 27 28 28 28 28 28 28 28 28 26 25 24 23 21 20 19 19 20 21 22 24 24 24 23 21 19 18 17 17 17 18 19 19 19 20 20 20 21 22 22 21 20 20
2 4 4 4 4 3 4 4 6 3 3 3 3 3 3 4 5 6 6 7 8 8 10 11 12 12 12 13 14 15 16 16 16 17 18 18 20 22 23 25 27 29 30 31 32 33 33 33 32 32 32 31 29 28 28 26 24 21 19 18 19 21 22 23 25 26 27 26 25 23 22 21 20 19 20 20 21 21 22 22 22 22 22 22 21 20
Wind_Direction
110 108 196 214 215 217 213 194 169 160 127 110 133 163 211 222 271 276 271 283 217 106 331 246 176 192 210 204 165 155 154 155 167 175 177 174 177 188 193 197 202 205 205 205 207 200 189 196 195 187 185 180 183 181 172 185 200 209 213 204 193 190 192 198 199 191 190 199 203 213 226 231 226 222 221 215 201 186 169 154 53 98 162 180 207 228
74 107 235 224 210 201 202 191 150 115 81 75 141 183 264 220 247 267 266 308 319 104 338 325 108 47 236 219 173 152 154 164 175 179 176 172 179 189 193 196 201 206 208 205 205 198 186 190 192 188 186 180 181 177 172 183 194 204 211 202 194 198 198 202 201 191 198 214 221 228 229 225 214 205 206 196 186 190 173 37 36 39 57 169 185 198
33 244 247 230 184 143 138 147 135 120 100 85 131 146 276 248 266 290 289 324 353 87 355 39 99 32 289 255 249 179 164 177 185 188 182 178 184 191 192 196 200 203 207 206 204 197 183 182 186 188 187 183 181 178 179 187 195 207 211 199 198 205 201 200 197 194 206 218 222 214 209 213 207 205 206 196 202 220 348 2 5 3 0 179 187 201
2 250 248 200 141 129 114 122 117 112 122 123 133 136 263 265 147 316 307 332 352 51 82 87 87 346 322 347 279 262 106 134 174 187 190 192 198 200 196 198 202 203 206 206 202 195 183 179 186 189 187 186 185 183 188 197 204 210 210 202 203 205 204 204 198 199 212 218 216 204 200 205 203 214 223 216 230 276 333 345 345 344 343 284 214 210
226 238 184 117 133 153 156 157 141 144 239 278 179 165 233 252 186 218 313 348 347 10 62 74 46 340 345 41 206 248 84 123 158 173 187 200 207 208 203 203 206 208 210 209 203 196 186 182 186 188 187 189 192 193 198 205 209 210 210 206 205 206 211 210 199 204 220 222 218 211 206 207 209 221 232 238 252 295 324 325 327 332 342 223 188 135
251 241 161 130 152 166 157 191 188 163 166 308 235 199 203 194 182 234 342 28 34 4 8 57 60 325 326 327 236 292 9 121 160 173 182 196 203 205 206 207 208 212 215 213 207 199 191 188 189 190 191 194 197 201 204 209 211 210 210 209 205 212 221 213 202 212 227 229 234 240 238 231 230 233 234 239 255 282 294 302 313 320 290 149 116 104
250 229 138 148 164 152 145 217 228 163 125 315 243 196 178 146 138 163 28 55 83 303 325 55 109 203 315 314 297 327 337 147 209 201 193 193 197 202 208 210 209 211 216 215 210 203 197 193 193 195 197 198 201 206 209 211 214 212 211 208 205 217 225 212 205 220 231 235 245 256 260 255 255 257 241 237 246 261 273 287 296 276 206 131 94 75
196 118 63 96 122 127 146 227 221 151 122 225 226 154 141 140 150 149 94 83 183 220 327 12 91 126 299 271 292 340 75 269 280 244 225 204 200 204 209 213 213 212 215 215 211 205 202 200 200 201 201 201 203 207 212 215 217 216 212 207 207 218 222 209 209 223 231 238 243 247 245 235 234 264 262 261 256 249 253 266 267 259 170 116 61 12
197 163 165 122 96 124 197 218 184 152 136 230 194 135 136 142 138 120 97 93 24 80 307 328 35 109 253 275 310 8 84 292 276 252 248 228 211 207 210 216 218 217 216 217 214 209 207 207 207 207 207 205 204 206 211 216 218 218 215 211 212 219 220 210 211 221 228 235 236 233 232 222 223 239 248 264 262 239 227 239 240 31 49 37 358 347
245 202 192 141 127 200 225 231 172 159 163 190 143 100 77 72 70 70 88 100 45 59 237 287 3 106 256 293 338 21 41 301 274 252 242 236 222 211 211 216 219 220 218 218 218 216 214 213 212 213 211 209 209 208 209 215 218 218 218 217 217 220 220 213 212 218 224 228 224 221 226 224 230 243 252 259 252 230 214 204 172 114 73 49 28 27
301 265 187 147 170 192 169 90 152 152 129 132 108 70 56 37 31 43 48 76 64 6 250 260 352 120 242 287 272 54 317 281 278 279 265 246 230 216 212 216 217 219 219 218 219 220 219 217 214 215 214 214 216 211 210 217 218 217 219 219 220 222 221 215 214 219 223 222 217 215 221 228 242 257 264 261 247 230 211 183 152 123 94 72 63 68
339 359 250 252 220 152 106 80 65 53 81 106 82 78 83 10 11 29 359 43 84 263 259 262 217 135 170 248 236 255 277 268 259 263 269 275 247 223 212 214 216 217 218 218 219 220 220 217 215 215 215 218 217 208 210 217 215 216 219 217 220 224 223 219 219 223 223 220 214 211 216 227 244 260 272 270 252 234 212 174 147 121 101 89 88 89
319 256 282 308 265 144 107 92 59 13 36 80 83 87 95 20 17 26 313 9 165 240 263 328 349 151 215 232 230 264 283 278 264 261 263 267 256 229 212 209 211 214 216 217 219 219 216 214 216 218 217 218 215 204 209 215 212 214 216 216 221 226 226 225 224 222 219 216 212 208 212 225 239 256 271 271 252 233 208 166 134 113 105 101 103 104
295 302 323 329 275 180 121 120 146 302 73 130 136 124 120 100 81 228 268 315 245 249 301 339 342 310 270 271 262 278 292 299 299 293 266 254 235 210 203 200 203 209 212 212 210 202 201 208 214 216 216 219 216 208 212 220 219 216 217 217 221 226 230 229 223 218 215 214 213 211 217 231 242 254 266 265 247 227 197 160 134 122 115 110 112 113
166 310 280 196 221 256 130 149 162 154 141 172 162 128 140 153 140 192 215 183 215 242 324 319 306 160 205 271 290 290 311 328 330 67 93 99 125 145 156 166 179 191 192 188 177 167 182 197 199 204 212 220 222 215 214 223 227 222 221 220 220 228 237 231 220 216 216 216 216 217 223 234 243 252 262 259 239 218 190 162 145 135 124 119 121 119
141 233 257 262 257 135 111 177 147 118 103 248 143 109 150 180 141 131 174 170 170 148 9 261 223 203 206 270 306 325 357 8 22 87 91 90 100 108 109 107 108 104 114 163 175 180 186 176 153 222 215 213 223 221 216 219 227 226 222 221 222 231 236 230 221 218 221 222 221 220 223 232 240 247 255 250 229 208 186 166 152 141 134 131 128 124
125 247 286 330 336 68 76 196 162 139 159 166 127 162 215 172 118 110 140 46 85 122 225 246 272 303 341 346 323 1 21 8 12 59 83 92 98 96 89 86 85 80 74 98 174 189 190 185 205 248 235 217 224 225 220 219 229 233 225 218 215 217 223 225 224 223 226 229 225 219 218 227 238 246 253 244 223 206 186 172 161 151 148 143 136 131
140 239 296 13 83 15 26 76 52 52 122 124 174 202 193 116 95 106 118 19 51 145 262 326 300 290 10 154 297 9 53 359 356 18 56 82 97 99 96 91 85 80 73 67 84 160 168 179 201 224 239 242 237 231 223 223 230 231 223 214 209 207 211 218 224 226 228 230 227 221 221 227 237 248 250 235 218 206 193 182 170 162 160 154 146 141
124 135 292 285 158 334 14 67 50 355 37 108 162 164 112 127 134 94 123 122 113 173 280 325 327 228 202 219 243 187 180 219 341 7 40 64 88 105 114 116 117 108 89 72 298 202 170 161 176 203 224 235 239 237 231 229 229 225 216 209 208 212 213 216 224 228 230 232 228 224 224 228 236 242 235 221 211 205 200 193 182 173 170 165 159 154
105 124 264 270 227 343 13 60 153 307 2 52 79 47 39 130 156 149 137 150 150 156 227 307 345 256 229 212 190 200 213 207 206 27 70 91 105 122 135 145 160 165 158 179 194 180 168 154 138 165 187 208 225 232 234 231 228 225 218 198 194 210 214 214 221 228 231 231 227 223 222 225 230 228 217 207 205 206 207 204 195 186 180 176 172 168
72 121 202 283 329 21 49 107 187 186 151 75 58 36 24 65 125 139 84 82 126 140 175 192 283 267 251 206 187 211 217 196 182 165 138 131 128 134 139 142 151 156 157 171 175 159 148 138 109 167 194 199 207 218 227 228 224 232 235 201 187 203 207 207 215 221 224 227 227 225 223 224 224 217 211 205 203 208 209 210 208 199 190 186 184 180
111 137 169 302 5 59 136 271 241 205 169 137 121 140 141 123 126 121 91 321 102 121 163 161 202 267 262 208 215 228 215 190 169 153 147 145 141 139 136 135 139 142 144 150 149 139 141 149 150 154 148 138 148 175 194 204 209 220 228 213 203 203 198 202 211 215 216 221 226 226 224 224 220 214 213 212 212 213 209 212 215 208 203 200 197 193
145 111 103 81 36 204 269 294 313 109 110 104 101 129 132 117 112 123 168 228 108 96 147 129 155 268 262 236 248 250 216 173 157 153 151 151 149 142 138 139 139 141 143 142 137 138 148 157 157 149 137 128 130 143 153 167 187 200 207 206 203 203 202 204 209 211 213 217 224 226 222 220 216 214 218 215 212 213 207 211 216 212 211 208 202 203
133 92 82 43 310 316 308 321 355 43 72 72 45 51 86 68 92 135 168 172 136 153 152 100 224 264 277 298 295 195 159 148 153 159 156 154 156 151 147 149 148 147 146 143 144 148 150 152 152 145 141 143 150 158 160 166 181 195 206 209 209 208 207 207 206 207 210 216 222 225 223 220 215 217 222 215 211 211 205 208 216 213 213 214 214 218
135 100 99 95 21 354 345 337 340 357 43 68 15 349 42 78 79 105 124 86 108 191 153 134 218 254 276 332 20 84 112 116 144 166 161 154 154 154 154 153 149 145 144 145 148 147 146 146 140 131 129 132 141 153 163 173 184 195 203 206 207 202 199 198 196 196 204 215 222 223 223 222 220 222 221 213 213 215 210 212 219 219 222 226 228 227
122 107 115 120 143 175 190 246 248 244 49 58 0 353 37 89 98 129 115 86 148 202 140 147 216 260 295 357 26 58 104 110 133 164 167 162 156 154 152 152 151 147 148 151 150 147 144 139 132 125 123 123 132 150 161 171 174 169 169 162 148 153 173 183 181 180 192 207 216 217 217 218 219 220 216 211 214 218 216 220 230 234 237 238 237 236
111 73 100 124 143 182 185 211 224 155 100 95 332 345 10 56 99 102 89 109 182 170 186 216 203 219 293 348 6 358 44 109 150 169 176 176 164 159 155 156 158 158 161 163 158 155 149 138 136 134 129 128 137 155 152 126 98 92 104 113 112 119 141 162 171 174 183 195 205 210 213 215 213 210 208 209 213 216 217 225 235 241 244 243 241 241
106 65 96 100 73 211 179 180 253 87 104 140 167 337 357 13 77 91 104 196 152 117 270 258 188 169 250 313 335 325 328 340 355 82 177 186 172 167 166 167 168 169 173 174 169 165 156 147 145 139 132 130 135 144 130 66 47 62 83 102 106 111 120 136 155 168 180 194 203 206 210 211 208 208 209 211 213 215 218 225 231 238 244 244 243 242
111 74 179 101 49 12 35 33 50 81 85 110 129 122 16 27 71 109 153 192 145 138 231 218 147 159 258 308 322 307 298 302 4 39 50 117 176 182 179 177 179 181 183 182 178 177 169 159 152 143 138 138 144 158 156 126 105 73 76 99 114 118 122 130 146 161 174 186 192 197 204 205 204 209 211 212 214 216 221 230 234 238 244 246 247 248
106 53 14 111 76 34 20 12 50 91 86 55 4 325 13 80 88 112 129 162 145 180 221 155 121 111 280 287 307 313 303 84 75 66 65 73 108 182 187 186 187 188 188 186 184 185 180 170 161 153 152 155 163 170 159 139 166 263 269 241 144 127 124 127 138 151 165 177 184 193 205 209 209 210 211 214 220 225 233 245 247 246 248 249 252 255
80 102 314 88 72 19 1 19 46 91 112 117 346 331 41 109 90 73 75 59 62 67 78 116 107 72 347 333 354 21 67 85 69 54 50 58 80 152 179 188 191 191 191 188 188 189 187 183 179 172 167 164 169 172 163 156 173 223 234 213 167 139 125 120 127 136 146 157 165 174 187 197 202 206 208 212 219 224 226 234 238 238 240 242 245 249
56 111 92 68 85 305 340 39 56 81 88 87 358 354 20 98 115 77 63 64 147 148 118 106 112 105 322 355 32 48 62 68 56 43 45 53 73 124 152 166 175 182 187 189 191 192 190 188 186 183 179 176 175 172 165 160 159 165 180 177 164 152 138 129 132 138 142 145 146 151 156 162 168 174 180 187 192 195 193 194 197 199 208 217 226 241
65 129 144 97 118 215 302 35 52 68 64 8 276 302 33 111 129 105 55 25 0 131 147 156 174 219 291 17 56 53 52 56 52 45 47 54 68 96 124 137 141 151 166 177 185 188 189 190 188 188 187 184 178 173 167 164 159 156 162 169 175 172 157 149 151 151 149 145 144 149 153 156 159 160 161 165 168 172 173 176 181 188 201 226 249 265
49 96 128 115 128 205 276 15 48 71 127 248 264 248 202 173 135 111 77 7 350 21 129 144 138 111 74 76 85 79 69 64 61 58 59 63 71 85 100 111 114 116 126 140 149 154 158 162 170 181 186 184 181 179 175 173 169 167 166 169 180 188 184 185 188 184 180 171 164 162 162 167 172 170 169 167 167 171 168 165 175 197 226 255 266 269
67 76 102 84 106 157 315 45 83 193 227 251 302 318 154 142 122 110 96 53 19 26 69 88 84 97 105 101 98 94 86 75 67 64 63 64 70 80 89 97 101 102 106 114 122 128 129 127 132 148 160 163 168 175 174 169 163 160 156 152 158 173 191 212 219 214 211 205 201 201 195 193 195 194 193 190 188 191 188 187 195 206 219 236 245 252
121 114 128 83 101 146 100 88 160 228 264 282 320 342 59 90 77 84 70 25 14 24 76 97 81 92 117 109 99 97 92 79 68 62 61 64 66 71 77 82 88 97 103 103 106 112 116 116 116 123 133 132 134 154 166 165 162 162 161 160 159 152 144 153 178 185 188 191 191 191 190 191 193 194 194 194 194 195 192 190 191 194 205 223 232 239
134 130 126 106 137 147 120 136 199 344 328 277 296 345 85 41 6 109 106 354 334 359 105 125 85 51 108 118 110 109 95 79 64 50 51 62 67 68 70 70 72 81 92 95 100 110 118 114 107 118 139 142 141 158 172 183 194 197 199 200 194 178 159 151 149 147 153 170 182 184 182 183 187 191 195 198 198 196 193 190 190 194 208 224 233 245
102 142 163 159 177 117 100 102 36 25 278 238 244 280 4 351 254 162 122 356 309 344 84 135 107 64 72 89 143 160 96 72 54 22 38 57 66 68 70 69 66 67 69 70 73 79 87 110 115 119 147 159 178 211 222 229 228 222 221 222 216 207 201 194 178 158 146 139 146 176 189 189 192 196 200 205 205 203 202 202 206 217 230 241 249 259
44 50 108 123 139 116 114 133 163 185 224 243 255 296 338 343 220 145 90 312 278 354 65 114 95 73 66 60 63 98 84 79 81 4 34 52 58 59 63 64 62 61 60 60 58 55 55 62 69 72 89 120 169 212 224 229 230 223 222 227 231 229 225 222 224 229 228 222 227 245 247 244 243 241 239 238 235 231 230 230 235 243 251 260 267 274
26 19 48 88 107 110 122 140 176 198 231 271 277 313 339 348 144 116 103 253 272 41 73 89 80 68 61 62 66 67 75 115 140 40 38 46 43 39 40 41 41 37 33 36 39 37 39 42 43 39 34 9 255 234 231 234 235 232 232 236 240 242 243 245 249 253 254 251 250 253 257 260 260 261 261 258 256 255 256 258 261 265 269 273 277 283
17 14 45 100 89 60 101 116 13 251 254 303 320 337 352 32 126 126 209 234 1 76 85 79 76 71 62 67 76 80 83 93 85 44 28 22 11 9 8 5 4 357 350 346 345 347 348 349 354 355 342 323 307 289 270 262 257 254 252 248 243 243 247 253 254 251 251 252 251 252 256 260 260 260 259 257 256 256 259 265 270 272 274 276 278 283
16 6 19 74 58 36 97 107 65 254 316 337 336 355 17 70 169 209 211 162 84 92 87 72 75 79 73 74 84 96 103 87 49 10 356 350 345 344 340 336 335 331 324 321 317 311 303 299 303 307 308 307 301 294 285 278 276 274 267 259 252 248 248 250 251 250 248 247 246 249 254 258 258 259 258 257 257 257 261 269 274 274 273 275 279 286
38 44 25 28 33 45 71 65 101 183 322 337 330 350 17 70 166 143 104 92 84 85 77 61 59 63 60 58 63 72 75 36 357 339 336 335 333 332 329 325 323 316 309 310 307 300 293 290 289 289 290 289 288 290 287 282 278 276 273 271 268 263 254 248 246 246 244 242 243 248 252 254 257 259 260 260 260 262 268 274 275 273 273 276 281 288
5 104 152 254 340 86 100 60 164 213 324 4 50 100 78 110 133 124 105 94 76 65 59 46 34 32 31 23 14 3 347 339 331 323 320 318 317 319 320 321 319 311 305 305 302 297 294 290 287 285 283 282 282 282 283 283 282 280 278 275 271 266 261 256 250 245 241 241 243 246 249 251 254 255 256 257 260 265 270 272 271 271 274 278 282 284
354 107 121 105 61 97 120 146 164 162 62 66 85 99 103 111 121 124 116 108 83 49 36 23 7 359 1 354 343 336 332 329 324 319 316 313 311 311 312 315 315 312 309 307 305 303 299 295 291 288 285 283 282 279 278 279 280 279 280 280 276 270 264 261 257 252 247 246 248 249 249 249 250 251 253 255 258 263 267 268 269 272 275 277 278 281
353 71 93 100 103 68 70 114 147 142 107 99 105 111 115 119 127 130 131 143 166 190 232 311 320 313 315 316 315 317 319 315 314 315 313 311 311 311 309 310 310 309 308 307 306 305 302 299 297 294 291 289 286 282 279 277 275 276 276 277 279 276 269 262 258 256 252 250 251 253 253 252 249 248 248 249 252 257 261 264 266 269 271 272 275 278
338 17 63 96 101 84 94 159 160 137 123 121 120 123 124 124 129 135 137 152 170 188 240 276 291 293 296 302 304 304 306 306 307 309 309 309 309 308 307 307 307 307 306 306 306 304 303 301 299 297 295 294 292 290 285 279 274 273 272 271 271 271 268 262 256 252 251 251 251 254 255 254 251 247 245 246 248 252 255 257 260 260 261 264 269 272
339 23 59 86 81 104 217 212 167 134 132 130 126 131 131 121 121 129 123 101 315 307 303 305 309 307 303 304 305 303 305 308 308 307 307 307 305 305 304 304 304 305 305 304 303 303 302 301 300 298 297 295 294 293 289 284 278 272 268 266 264 261 259 257 253 250 247 246 247 248 248 247 246 245 245 246 248 251 253 255 257 257 259 261 263 265
354 22 70 96 65 35 299 202 161 149 171 161 145 142 131 80 27 346 330 320 314 313 311 309 309 309 308 307 306 305 305 306 305 303 301 301 300 299 299 299 300 301 301 301 300 299 299 298 297 297 296 295 293 291 287 285 282 276 270 265 261 257 255 255 255 254 249 244 243 244 244 246 247 248 249 251 253 256 260 262 263 264 264 263 263 263
63 100 142 87 80 292 251 180 158 168 252 223 196 210 281 284 296 298 297 299 301 302 303 304 303 303 301 298 297 297 297 296 295 293 292 293 294 294 295 296 297 297 297 297 296 295 294 294 293 292 291 291 290 288 284 282 280 278 276 271 266 261 256 253 253 255 255 254 253 251 250 251 252 254 256 258 259 261 262 263 263 263 263 262 261 262
108 165 166 130 144 216 231 182 169 195 242 231 234 260 263 264 275 283 290 299 305 306 306 306 305 301 292 286 285 286 286 287 288 288 289 291 293 294 295 296 295 295 295 294 293 293 292 290 289 288 287 286 285 283 281 279 277 275 275 274 271 266 261 256 253 253 254 255 257 258 258 259 259 260 259 256 255 256 257 258 259 259 259 260 259 259